TimeCDT,TemperatureF,Dew PointF,Humidity,Sea Level PressureIn,VisibilityMPH,Wind Direction,Wind SpeedMPH,Gust SpeedMPH,PrecipitationIn,Events,Conditions,WindDirDegrees,DateUTC
12:15 AM,73.4,69.8,88,29.95,10.0,SE,5.8,-,N/A,,Clear,130,2013-08-02 05:15:00
12:35 AM,75.2,69.8,83,29.94,10.0,SE,6.9,-,N/A,,Clear,140,2013-08-02 05:35:00
12:55 AM,75.2,69.8,83,29.93,10.0,SSE,8.1,-,N/A,,Clear,150,2013-08-02 05:55:00
1:15 AM,77.0,69.8,78,29.91,10.0,SSE,10.4,-,N/A,,Clear,150,2013-08-02 06:15:00
1:35 AM,77.0,69.8,78,29.90,10.0,SSE,11.5,-,N/A,,Clear,160,2013-08-02 06:35:00
1:55 AM,75.2,71.6,89,29.90,10.0,South,8.1,-,N/A,,Partly Cloudy,170,2013-08-02 06:55:00
2:15 AM,75.2,71.6,89,29.90,10.0,South,8.1,-,N/A,,Clear,170,2013-08-02 07:15:00
2:35 AM,75.2,71.6,89,29.90,10.0,South,8.1,-,N/A,,Clear,170,2013-08-02 07:35:00
2:55 AM,75.2,71.6,89,29.90,10.0,South,9.2,-,N/A,,Clear,170,2013-08-02 07:55:00
3:15 AM,75.2,71.6,89,29.89,10.0,South,8.1,-,N/A,,Scattered Clouds,170,2013-08-02 08:15:00
3:35 AM,75.2,71.6,89,29.89,10.0,SSE,10.4,-,N/A,,Mostly Cloudy,150,2013-08-02 08:35:00
3:55 AM,75.2,71.6,89,29.89,10.0,South,6.9,-,N/A,,Mostly Cloudy,170,2013-08-02 08:55:00
4:15 AM,75.2,71.6,89,29.88,10.0,SSE,6.9,-,N/A,,Scattered Clouds,160,2013-08-02 09:15:00
5:15 AM,75.2,71.6,89,29.89,10.0,Calm,Calm,-,N/A,,Partly Cloudy,0,2013-08-02 10:15:00
5:35 AM,75.2,71.6,89,29.92,10.0,NW,10.4,-,N/A,,Mostly Cloudy,320,2013-08-02 10:35:00
5:55 AM,75.2,71.6,89,29.89,10.0,NE,4.6,-,N/A,,Overcast,50,2013-08-02 10:55:00
6:15 AM,73.4,71.6,94,29.85,10.0,SE,10.4,-,N/A,,Mostly Cloudy,130,2013-08-02 11:15:00
6:35 AM,75.2,71.6,89,29.87,10.0,SE,3.5,-,N/A,,Mostly Cloudy,130,2013-08-02 11:35:00
6:55 AM,75.2,71.6,89,29.88,10.0,East,4.6,-,N/A,,Clear,100,2013-08-02 11:55:00
7:35 AM,75.2,73.4,94,29.86,10.0,ESE,9.2,-,N/A,,Partly Cloudy,110,2013-08-02 12:35:00
7:55 AM,75.2,73.4,94,29.87,10.0,ENE,4.6,-,N/A,,Scattered Clouds,70,2013-08-02 12:55:00
8:15 AM,75.2,73.4,94,29.87,10.0,ESE,4.6,-,N/A,,Mostly Cloudy,110,2013-08-02 13:15:00
8:35 AM,75.2,73.4,94,29.87,10.0,SE,4.6,-,N/A,,Scattered Clouds,130,2013-08-02 13:35:00
8:55 AM,75.2,73.4,94,29.91,4.0,North,8.1,-,0.02,,Mostly Cloudy,360,2013-08-02 13:55:00
9:15 AM,75.2,75.2,100,29.91,5.0,NNE,10.4,-,N/A,Rain,Light Rain,20,2013-08-02 14:15:00
9:35 AM,75.2,75.2,100,29.90,6.0,East,8.1,-,N/A,,Mostly Cloudy,80,2013-08-02 14:35:00
9:55 AM,77.0,75.2,94,29.91,8.0,East,10.4,-,N/A,,Scattered Clouds,90,2013-08-02 14:55:00
10:15 AM,77.0,75.2,94,29.91,8.0,ENE,12.7,-,N/A,,Overcast,70,2013-08-02 15:15:00
10:35 AM,77.0,75.2,94,29.90,7.0,East,12.7,-,N/A,,Overcast,100,2013-08-02 15:35:00
10:55 AM,77.0,75.2,94,29.90,8.0,ESE,11.5,16.1,N/A,,Scattered Clouds,110,2013-08-02 15:55:00
11:15 AM,80.6,75.2,84,29.90,9.0,ESE,16.1,19.6,N/A,,Clear,110,2013-08-02 16:15:00
11:35 AM,80.6,75.2,84,29.90,10.0,SE,16.1,21.9,0.01,,Scattered Clouds,130,2013-08-02 16:35:00
11:55 AM,82.4,75.2,79,29.88,10.0,SE,19.6,23.0,0.01,,Partly Cloudy,130,2013-08-02 16:55:00
12:15 PM,82.4,75.2,79,29.87,10.0,SE,17.3,23.0,N/A,,Partly Cloudy,140,2013-08-02 17:15:00
12:35 PM,82.4,75.2,79,29.86,10.0,SSE,17.3,26.5,N/A,,Clear,150,2013-08-02 17:35:00
12:55 PM,84.2,75.2,74,29.86,10.0,SSE,16.1,21.9,N/A,,Clear,150,2013-08-02 17:55:00
1:15 PM,86.0,75.2,70,29.85,10.0,SE,20.7,25.3,N/A,,Clear,140,2013-08-02 18:15:00
1:35 PM,84.2,75.2,74,29.84,10.0,SSE,17.3,24.2,N/A,,Clear,150,2013-08-02 18:35:00
1:55 PM,86.0,75.2,70,29.84,10.0,SE,13.8,20.7,N/A,,Clear,140,2013-08-02 18:55:00
2:15 PM,89.6,75.2,62,29.83,10.0,South,17.3,23.0,N/A,,Clear,170,2013-08-02 19:15:00
2:35 PM,91.4,75.2,59,29.83,10.0,South,18.4,23.0,N/A,,Clear,170,2013-08-02 19:35:00
2:55 PM,93.2,75.2,56,29.82,10.0,SSE,17.3,25.3,N/A,,Clear,160,2013-08-02 19:55:00
3:15 PM,93.2,75.2,56,29.82,10.0,South,17.3,23.0,N/A,,Clear,170,2013-08-02 20:15:00
3:35 PM,95.0,77.0,56,29.82,10.0,South,16.1,23.0,N/A,,Clear,180,2013-08-02 20:35:00
3:55 PM,95.0,77.0,56,29.81,10.0,South,18.4,23.0,N/A,,Clear,170,2013-08-02 20:55:00
4:15 PM,93.2,77.0,59,29.80,10.0,SSE,16.1,21.9,N/A,,Clear,150,2013-08-02 21:15:00
4:35 PM,93.2,77.0,59,29.80,10.0,South,17.3,21.9,N/A,,Clear,170,2013-08-02 21:35:00
4:55 PM,96.8,75.2,50,29.79,10.0,South,15.0,20.7,N/A,,Clear,170,2013-08-02 21:55:00
5:15 PM,96.8,75.2,50,29.79,10.0,South,16.1,21.9,N/A,,Clear,170,2013-08-02 22:15:00
5:35 PM,96.8,73.4,47,29.79,10.0,SSE,17.3,23.0,N/A,,Clear,160,2013-08-02 22:35:00
5:55 PM,95.0,73.4,49,29.78,10.0,South,15.0,-,N/A,,Clear,170,2013-08-02 22:55:00
6:15 PM,95.0,73.4,49,29.79,10.0,South,12.7,19.6,N/A,,Clear,170,2013-08-02 23:15:00
6:35 PM,95.0,73.4,49,29.78,10.0,SSE,12.7,-,N/A,,Clear,160,2013-08-02 23:35:00
6:55 PM,95.0,75.2,53,29.79,10.0,SSE,11.5,-,N/A,,Clear,160,2013-08-02 23:55:00
7:15 PM,93.2,75.2,56,29.78,10.0,SSE,11.5,-,N/A,,Clear,150,2013-08-03 00:15:00
7:35 PM,93.2,75.2,56,29.79,10.0,SSE,9.2,-,N/A,,Clear,150,2013-08-03 00:35:00
7:55 PM,89.6,75.2,62,29.79,10.0,SSE,10.4,-,N/A,,Clear,150,2013-08-03 00:55:00
8:15 PM,89.6,75.2,62,29.79,10.0,SSE,10.4,-,N/A,,Clear,150,2013-08-03 01:15:00
8:35 PM,86.0,73.4,66,29.79,10.0,SSE,8.1,-,N/A,,Clear,150,2013-08-03 01:35:00
8:55 PM,86.0,73.4,66,29.79,10.0,SSE,10.4,-,N/A,,Clear,150,2013-08-03 01:55:00
9:15 PM,86.0,73.4,66,29.79,10.0,SSE,10.4,-,N/A,,Clear,150,2013-08-03 02:15:00
9:35 PM,86.0,73.4,66,29.80,10.0,SSE,10.4,-,N/A,,Clear,150,2013-08-03 02:35:00
9:55 PM,86.0,73.4,66,29.80,10.0,SSE,9.2,-,N/A,,Clear,160,2013-08-03 02:55:00
10:15 PM,84.2,73.4,70,29.80,10.0,SSE,10.4,-,N/A,,Clear,150,2013-08-03 03:15:00
10:35 PM,84.2,73.4,70,29.80,10.0,SE,9.2,-,N/A,,Clear,140,2013-08-03 03:35:00
10:55 PM,84.2,73.4,70,29.81,10.0,SSE,9.2,-,N/A,,Partly Cloudy,150,2013-08-03 03:55:00
11:15 PM,84.2,71.6,66,29.82,10.0,SSE,9.2,-,N/A,,Partly Cloudy,150,2013-08-03 04:15:00
11:35 PM,84.2,71.6,66,29.83,10.0,SE,5.8,-,N/A,,Scattered Clouds,140,2013-08-03 04:35:00
11:55 PM,84.2,73.4,70,29.87,10.0,NW,17.3,23.0,N/A,,Scattered Clouds,320,2013-08-03 04:55:00